Temp
-8 -8 -8 -8 -8 -9 -9 -9 -10 -11 -10 -10 -11 -12 -12 -12 -11 -12 -12 -11 -12 -11 -11 -11 -11 -11 -12 -12 -12 -11 -11 -11 -11 -11 -11 -10 -10 -10 -10 -10 -10 -10 -10 -10
-8 -8 -8 -8 -9 -9 -9 -10 -11 -11 -10 -11 -12 -12 -13 -12 -12 -12 -12 -12 -12 -13 -13 -13 -13 -13 -13 -12 -12 -12 -12 -12 -12 -12 -12 -12 -11 -11 -11 -11 -11 -11 -11 -11
-9 -8 -9 -9 -9 -9 -10 -10 -11 -11 -12 -12 -12 -13 -14 -13 -12 -13 -13 -13 -13 -13 -13 -13 -13 -13 -13 -13 -13 -13 -12 -12 -12 -12 -12 -12 -12 -12 -12 -12 -12 -12 -11 -11
-9 -9 -9 -9 -10 -10 -10 -11 -11 -12 -12 -13 -14 -13 -15 -15 -13 -13 -14 -14 -14 -14 -14 -14 -14 -13 -13 -13 -14 -13 -13 -13 -13 -13 -13 -12 -12 -12 -12 -12 -12 -12 -12 -12
-9 -9 -9 -10 -10 -10 -10 -11 -11 -12 -12 -12 -13 -15 -14 -14 -15 -14 -14 -14 -14 -14 -14 -14 -14 -14 -14 -13 -13 -13 -13 -13 -13 -14 -14 -13 -13 -13 -13 -12 -12 -12 -12 -12
-9 -9 -9 -10 -10 -10 -11 -11 -12 -12 -12 -13 -14 -14 -14 -13 -13 -14 -14 -14 -14 -14 -14 -14 -14 -14 -14 -14 -14 -14 -14 -14 -14 -14 -14 -14 -13 -13 -13 -13 -12 -12 -12 -13
-10 -10 -10 -10 -11 -11 -11 -11 -12 -14 -13 -13 -14 -14 -15 -15 -14 -15 -15 -14 -14 -14 -15 -15 -14 -14 -14 -14 -14 -14 -14 -14 -14 -14 -14 -14 -13 -13 -13 -12 -12 -12 -12 -13
-10 -10 -10 -10 -11 -11 -11 -12 -12 -12 -13 -14 -14 -15 -15 -15 -15 -15 -15 -14 -14 -14 -15 -15 -15 -14 -14 -14 -14 -14 -14 -14 -14 -13 -13 -13 -13 -13 -13 -12 -12 -12 -11 -11
-10 -11 -11 -11 -11 -12 -11 -12 -13 -13 -13 -13 -14 -14 -15 -15 -15 -14 -15 -15 -15 -15 -15 -15 -14 -14 -14 -14 -14 -14 -14 -14 -14 -14 -14 -13 -13 -12 -12 -12 -12 -12 -12 -12
-11 -11 -11 -11 -11 -12 -12 -12 -12 -12 -13 -13 -14 -14 -14 -15 -14 -15 -15 -16 -15 -15 -15 -15 -15 -15 -14 -14 -14 -14 -14 -14 -14 -14 -14 -13 -13 -13 -12 -12 -12 -12 -12 -11
-11 -11 -11 -12 -12 -12 -12 -13 -13 -13 -14 -14 -14 -15 -15 -15 -15 -15 -15 -15 -15 -15 -15 -15 -15 -15 -15 -14 -14 -14 -14 -14 -14 -14 -13 -13 -13 -13 -12 -12 -12 -12 -12 -12
-11 -12 -12 -12 -12 -12 -13 -13 -13 -14 -14 -13 -14 -14 -15 -15 -15 -15 -15 -15 -15 -15 -15 -15 -15 -15 -15 -15 -15 -15 -15 -14 -14 -14 -13 -13 -13 -12 -12 -12 -12 -12 -12 -12
-12 -12 -12 -12 -13 -13 -13 -13 -13 -14 -14 -14 -14 -15 -16 -17 -16 -15 -15 -15 -15 -15 -15 -15 -15 -15 -15 -15 -15 -15 -15 -14 -14 -14 -13 -13 -13 -12 -12 -12 -12 -13 -12 -13
-13 -13 -13 -13 -14 -14 -13 -13 -14 -14 -14 -14 -15 -16 -17 -18 -15 -15 -15 -15 -15 -15 -15 -15 -15 -15 -15 -15 -15 -15 -15 -14 -14 -14 -13 -13 -12 -12 -12 -12 -12 -12 -12 -12
-13 -13 -13 -13 -14 -14 -14 -14 -14 -14 -15 -16 -17 -17 -18 -15 -15 -15 -15 -14 -15 -15 -15 -15 -14 -14 -15 -15 -15 -15 -15 -14 -14 -13 -13 -12 -12 -11 -12 -12 -12 -12 -12 -11
-13 -13 -14 -14 -14 -14 -14 -14 -14 -15 -15 -17 -17 -17 -16 -16 -16 -15 -15 -14 -15 -15 -15 -15 -14 -14 -14 -14 -14 -14 -14 -14 -13 -13 -13 -12 -12 -13 -13 -13 -13 -13 -13 -12
-14 -14 -14 -14 -15 -14 -14 -15 -14 -16 -17 -17 -18 -17 -16 -15 -15 -15 -14 -14 -14 -14 -15 -15 -14 -14 -14 -14 -14 -14 -14 -13 -13 -13 -13 -13 -13 -13 -13 -13 -13 -13 -13 -14
-14 -14 -15 -14 -15 -15 -16 -15 -15 -15 -16 -16 -16 -17 -16 -15 -15 -16 -14 -14 -14 -14 -15 -14 -14 -14 -14 -14 -14 -14 -13 -14 -14 -14 -14 -13 -13 -13 -14 -14 -14 -13 -13 -14
-15 -15 -16 -16 -15 -15 -16 -16 -15 -15 -16 -17 -16 -16 -16 -16 -16 -16 -14 -15 -15 -15 -15 -14 -14 -14 -14 -14 -14 -14 -13 -13 -13 -13 -13 -14 -14 -14 -14 -14 -13 -13 -13 -13
-15 -16 -16 -16 -16 -16 -17 -17 -16 -16 -16 -15 -16 -16 -16 -16 -16 -15 -15 -14 -14 -14 -14 -14 -14 -14 -14 -14 -14 -14 -13 -13 -13 -13 -13 -14 -14 -15 -14 -14 -13 -13 -13 -14
-16 -16 -16 -16 -16 -17 -17 -16 -16 -17 -16 -16 -16 -16 -16 -16 -16 -15 -15 -14 -14 -14 -14 -14 -14 -14 -14 -14 -14 -14 -13 -13 -13 -13 -14 -14 -15 -15 -14 -14 -14 -14 -14 -14
-17 -16 -17 -17 -17 -17 -17 -16 -17 -16 -17 -16 -16 -16 -16 -16 -16 -16 -15 -15 -14 -14 -14 -14 -14 -14 -14 -14 -14 -13 -13 -13 -13 -14 -14 -14 -15 -15 -15 -14 -14 -14 -15 -14
-17 -18 -19 -18 -16 -17 -17 -17 -17 -17 -17 -17 -17 -16 -16 -16 -16 -16 -15 -15 -15 -15 -15 -14 -14 -14 -14 -14 -14 -13 -13 -13 -13 -14 -14 -14 -15 -15 -15 -15 -14 -15 -14 -14
-18 -17 -17 -17 -18 -18 -17 -17 -17 -16 -17 -17 -17 -16 -16 -16 -16 -16 -16 -15 -15 -15 -15 -14 -14 -14 -14 -14 -13 -13 -13 -13 -13 -14 -14 -14 -15 -15 -15 -15 -15 -15 -14 -14
-17 -17 -17 -17 -18 -18 -18 -17 -17 -17 -17 -17 -17 -17 -16 -16 -16 -16 -16 -15 -15 -15 -15 -14 -14 -14 -14 -14 -13 -13 -13 -13 -13 -14 -14 -14 -14 -15 -15 -15 -14 -14 -14 -14
-17 -17 -17 -17 -18 -17 -18 -18 -17 -17 -17 -17 -17 -17 -16 -16 -16 -16 -16 -16 -15 -15 -15 -15 -14 -14 -14 -14 -14 -13 -13 -13 -13 -13 -13 -14 -14 -13 -14 -14 -14 -13 -14 -13
Height
5840 5839 5838 5837 5835 5834 5833 5831 5829 5824 5821 5821 5818 5815 5813 5802 5807 5801 5799 5796 5794 5792 5790 5789 5788 5785 5784 5782 5780 5779 5779 5778 5778 5777 5778 5778 5778 5778 5778 5778 5780 5782 5783 5783
5837 5836 5834 5832 5831 5829 5828 5826 5824 5820 5816 5816 5812 5810 5807 5802 5799 5796 5792 5788 5786 5784 5782 5780 5778 5775 5773 5772 5770 5768 5767 5766 5765 5765 5765 5764 5764 5764 5764 5765 5765 5766 5768 5770
5833 5832 5830 5828 5827 5825 5824 5821 5819 5817 5813 5810 5806 5805 5804 5796 5793 5790 5786 5784 5781 5778 5775 5773 5770 5767 5765 5762 5760 5758 5756 5754 5753 5752 5751 5751 5751 5752 5751 5751 5751 5752 5753 5755
5830 5828 5826 5824 5822 5821 5818 5816 5814 5811 5809 5809 5805 5803 5800 5789 5786 5783 5780 5778 5775 5772 5770 5766 5763 5759 5756 5753 5750 5748 5745 5743 5741 5740 5739 5738 5738 5738 5738 5738 5738 5739 5740 5742
5826 5824 5822 5820 5818 5816 5815 5812 5810 5807 5805 5802 5800 5799 5799 5789 5783 5778 5776 5773 5770 5766 5763 5760 5757 5753 5750 5745 5741 5738 5735 5732 5730 5729 5727 5726 5726 5726 5725 5725 5726 5727 5728 5727
5821 5819 5818 5816 5814 5812 5810 5809 5806 5803 5800 5799 5797 5797 5794 5788 5783 5778 5773 5769 5764 5760 5757 5754 5750 5747 5743 5738 5733 5728 5724 5722 5719 5718 5717 5715 5715 5714 5713 5713 5713 5714 5715 5716
5816 5815 5813 5812 5810 5808 5807 5805 5804 5803 5803 5804 5793 5792 5789 5781 5778 5776 5770 5764 5758 5755 5751 5748 5744 5740 5735 5731 5726 5721 5716 5711 5708 5706 5705 5704 5703 5702 5702 5701 5701 5702 5702 5703
5813 5810 5809 5808 5806 5805 5803 5802 5801 5798 5797 5797 5792 5787 5778 5776 5772 5769 5764 5758 5753 5749 5746 5742 5738 5733 5728 5724 5719 5714 5708 5702 5696 5693 5692 5691 5691 5690 5690 5689 5689 5689 5689 5689
5808 5806 5805 5803 5802 5801 5799 5798 5796 5792 5790 5787 5788 5780 5774 5771 5764 5761 5758 5753 5748 5744 5740 5735 5731 5725 5721 5716 5711 5705 5700 5695 5688 5683 5680 5679 5678 5677 5677 5676 5676 5676 5675 5675
5803 5801 5801 5799 5798 5796 5795 5794 5790 5785 5783 5782 5786 5780 5772 5767 5761 5758 5753 5747 5743 5738 5733 5729 5723 5717 5712 5707 5702 5696 5690 5686 5681 5676 5671 5669 5666 5664 5663 5662 5662 5661 5660 5660
5797 5797 5796 5794 5793 5791 5789 5786 5786 5784 5780 5775 5772 5773 5765 5761 5756 5753 5748 5742 5737 5732 5727 5721 5716 5709 5703 5697 5691 5685 5680 5675 5670 5665 5662 5658 5654 5651 5649 5648 5648 5647 5646 5646
5791 5791 5790 5789 5787 5786 5784 5782 5780 5777 5774 5769 5766 5767 5759 5754 5750 5745 5740 5736 5730 5725 5720 5714 5707 5700 5694 5688 5682 5675 5669 5664 5658 5654 5649 5645 5641 5638 5635 5633 5633 5630 5630 5630
5785 5785 5785 5783 5783 5780 5778 5775 5774 5772 5769 5766 5760 5760 5752 5749 5744 5739 5734 5729 5723 5718 5713 5707 5701 5694 5687 5680 5673 5666 5659 5652 5647 5641 5636 5631 5626 5622 5620 5619 5617 5615 5613 5613
5778 5779 5778 5779 5777 5774 5771 5769 5769 5765 5762 5758 5756 5753 5752 5745 5738 5734 5729 5723 5718 5712 5706 5699 5693 5687 5679 5672 5663 5656 5649 5640 5633 5627 5621 5615 5611 5606 5604 5603 5602 5601 5598 5597
5771 5771 5771 5771 5770 5769 5767 5765 5762 5759 5756 5753 5750 5746 5743 5737 5733 5728 5723 5718 5712 5706 5700 5693 5687 5680 5672 5663 5655 5646 5638 5629 5621 5613 5606 5601 5597 5594 5592 5591 5589 5587 5585 5583
5763 5764 5764 5763 5762 5760 5760 5759 5756 5754 5750 5748 5746 5744 5734 5733 5727 5723 5717 5712 5707 5701 5695 5688 5681 5673 5664 5655 5647 5637 5628 5617 5607 5600 5594 5590 5587 5584 5582 5580 5579 5577 5576 5574
5756 5756 5755 5756 5755 5753 5753 5752 5750 5747 5745 5746 5742 5737 5731 5727 5720 5716 5710 5707 5702 5697 5690 5683 5675 5666 5657 5647 5637 5627 5616 5606 5598 5592 5584 5580 5577 5575 5573 5572 5572 5571 5569 5568
5747 5748 5748 5748 5748 5746 5747 5744 5744 5742 5740 5737 5733 5729 5724 5718 5714 5710 5704 5702 5697 5691 5685 5678 5670 5661 5650 5639 5628 5617 5605 5596 5589 5584 5578 5574 5570 5567 5567 5567 5569 5567 5567 5567
5739 5739 5739 5740 5741 5743 5740 5738 5737 5734 5734 5729 5727 5722 5717 5713 5709 5706 5699 5696 5692 5687 5680 5673 5663 5653 5643 5631 5620 5608 5596 5588 5582 5575 5570 5569 5567 5565 5565 5566 5568 5567 5568 5568
5731 5731 5731 5733 5733 5733 5734 5727 5731 5728 5727 5722 5721 5717 5712 5708 5704 5700 5696 5692 5689 5683 5675 5667 5658 5649 5637 5626 5612 5600 5588 5580 5575 5571 5568 5565 5564 5565 5566 5568 5570 5571 5573 5573
5723 5723 5723 5724 5723 5725 5720 5719 5725 5723 5722 5718 5714 5711 5707 5702 5698 5694 5690 5687 5683 5678 5670 5663 5653 5644 5632 5621 5606 5593 5581 5576 5573 5569 5566 5565 5566 5567 5568 5570 5572 5573 5574 5577
5713 5715 5716 5715 5716 5717 5712 5715 5715 5715 5712 5710 5709 5705 5702 5697 5692 5687 5684 5681 5678 5673 5666 5659 5649 5641 5630 5617 5604 5592 5583 5578 5573 5569 5568 5567 5567 5569 5571 5573 5575 5576 5578 5580
5706 5707 5709 5712 5711 5706 5705 5704 5706 5706 5705 5703 5702 5699 5695 5690 5685 5681 5678 5676 5672 5666 5661 5654 5646 5638 5627 5615 5603 5593 5585 5580 5575 5573 5571 5570 5570 5571 5573 5576 5578 5580 5582 5584
5694 5697 5698 5698 5699 5698 5694 5696 5696 5696 5697 5695 5694 5692 5687 5682 5678 5676 5673 5670 5666 5661 5657 5651 5643 5635 5626 5615 5603 5594 5586 5582 5577 5576 5576 5575 5576 5575 5577 5579 5581 5583 5587 5589
5689 5688 5689 5688 5688 5688 5686 5685 5688 5688 5688 5688 5687 5684 5679 5675 5672 5671 5667 5665 5662 5658 5654 5648 5640 5632 5624 5614 5604 5596 5590 5585 5581 5581 5580 5580 5581 5582 5583 5584 5586 5588 5592 5594
5680 5679 5679 5679 5679 5677 5680 5678 5680 5680 5680 5679 5678 5676 5672 5669 5667 5665 5662 5660 5658 5655 5651 5646 5640 5631 5624 5615 5606 5598 5593 5590 5587 5584 5584 5585 5585 5586 5588 5590 5592 5594 5595 5598
Wind_Speed
14 15 15 16 16 16 17 20 21 26 30 25 24 25 27 40 27 34 32 35 35 37 37 38 39 41 43 45 46 48 49 50 51 52 52 52 53 54 54 54 53 50 51 53
14 14 15 15 15 16 17 17 19 22 27 23 24 24 27 32 31 31 33 35 35 35 35 35 36 37 38 40 42 44 46 47 49 51 52 53 54 54 55 55 56 54 53 53
13 15 15 16 16 16 16 17 18 19 22 22 22 19 18 32 32 32 33 32 33 33 33 34 36 37 38 39 40 41 43 45 47 48 50 51 52 54 55 56 57 57 56 55
14 15 16 16 16 16 18 17 17 17 18 11 20 19 20 34 37 34 32 30 31 33 33 34 34 35 37 37 38 40 41 42 43 44 45 47 48 50 52 54 55 57 56 54
14 15 16 15 15 16 18 20 19 20 19 20 20 15 13 29 30 30 19 32 33 31 29 29 28 30 34 37 40 41 40 40 43 44 44 44 44 45 47 50 52 52 53 54
14 15 15 15 14 16 17 18 19 19 22 19 10 20 15 24 17 37 35 34 34 28 26 30 32 35 34 34 36 37 39 40 40 41 40 42 45 46 45 46 47 49 51 53
14 15 16 15 14 14 16 19 16 13 12 15 28 30 20 33 32 31 34 34 32 29 29 32 35 35 36 38 38 37 38 39 39 40 42 42 41 40 41 43 46 47 49 50
14 17 16 15 13 15 16 17 18 17 16 15 26 23 27 29 33 30 31 34 31 29 30 33 35 36 36 37 37 37 38 39 37 38 40 41 42 42 42 42 44 47 50 52
14 18 17 16 14 14 18 18 19 20 23 22 13 19 36 31 30 28 30 32 32 30 32 35 35 36 37 37 38 39 38 38 36 34 34 37 40 43 44 46 45 47 47 49
17 18 16 17 15 14 15 19 22 26 24 24 9 19 24 31 22 35 31 32 30 29 32 33 36 38 38 37 37 38 40 39 37 34 33 36 40 44 47 48 48 47 48 49
20 18 19 18 16 16 18 21 20 20 23 25 24 16 22 29 34 34 31 32 32 31 33 35 37 39 40 40 40 41 42 41 40 38 36 36 36 41 45 48 49 49 49 49
22 21 20 19 19 18 18 19 22 25 25 26 25 20 28 30 29 32 32 35 34 32 32 35 37 38 39 40 42 43 43 43 42 41 42 42 42 38 40 42 43 47 48 48
24 23 21 23 19 22 17 23 23 24 23 23 25 21 28 28 33 33 36 33 31 31 32 33 36 38 39 39 40 41 42 43 44 45 47 48 47 42 39 39 40 42 44 44
26 24 23 20 22 27 28 26 23 26 25 25 23 24 22 27 31 33 31 31 30 32 34 36 38 39 39 40 41 43 44 46 46 48 51 52 47 41 37 36 39 41 42 39
27 25 26 25 25 25 25 26 26 26 26 23 25 24 24 28 32 33 32 29 31 32 34 36 38 39 40 42 43 46 46 46 49 49 44 37 32 32 33 36 37 36 34 35
29 27 28 27 28 27 25 23 26 24 26 21 25 24 21 31 37 32 32 28 29 30 33 35 38 40 42 43 44 44 47 49 41 35 35 33 30 31 31 31 28 26 25 24
31 28 31 29 28 30 29 24 22 22 19 20 21 28 28 33 34 33 31 26 29 30 33 38 42 44 45 46 46 46 47 39 31 34 29 26 24 23 22 23 20 18 10 11
31 31 31 31 28 31 24 28 23 22 23 23 24 27 32 34 34 35 32 29 30 33 36 39 44 47 47 48 48 52 47 38 34 33 24 22 20 13 18 10 9 4 3 6
32 34 33 33 30 26 27 28 26 24 22 23 25 28 30 32 33 32 34 34 33 35 38 41 46 50 49 52 55 49 41 34 33 32 24 15 11 5 4 2 4 5 4 8
32 33 34 32 33 31 20 35 24 26 25 28 23 27 30 31 33 35 34 33 31 35 40 43 47 51 51 52 51 50 43 27 15 18 17 8 6 7 5 7 9 17 14 8
32 32 34 33 35 31 36 39 23 26 30 27 27 28 31 33 35 36 35 33 33 35 40 43 48 51 52 53 50 50 31 17 15 14 8 8 3 9 8 10 13 10 9 9
33 30 31 32 34 35 39 30 28 28 28 29 29 31 34 35 36 36 36 35 33 35 38 43 47 50 51 52 49 38 21 16 15 9 10 2 7 4 8 11 12 9 7 12
32 32 29 26 23 30 35 35 29 30 29 31 31 33 35 35 35 36 34 33 33 35 37 41 46 48 48 47 43 33 18 17 17 11 11 8 6 3 6 11 10 9 10 15
35 30 34 34 38 43 43 37 35 35 29 32 32 33 34 33 33 31 30 30 30 32 35 38 43 45 44 43 39 32 22 18 12 13 12 14 15 16 17 7 7 10 15 18
31 32 30 32 33 38 41 40 34 33 32 30 31 29 30 30 29 28 27 26 27 30 32 37 40 40 41 38 33 28 22 15 13 10 12 17 15 9 8 8 12 14 17 19
28 29 30 31 33 36 31 34 28 28 28 29 28 26 26 27 26 26 26 26 25 27 30 34 35 35 37 34 33 28 18 12 11 9 8 10 5 7 9 11 13 10 13 12
Wind_Direction
319 319 319 311 308 302 294 294 290 286 295 301 295 292 293 292 298 292 290 288 286 286 284 282 279 277 275 273 271 268 266 265 264 264 262 260 261 263 263 263 262 257 258 258
323 325 326 326 326 321 313 307 300 298 296 301 298 301 293 292 297 289 291 289 289 288 289 289 287 283 281 278 276 274 272 269 267 265 263 263 262 262 262 263 264 264 261 258
332 330 332 328 327 322 320 311 300 297 298 306 302 316 299 297 292 289 288 288 289 291 292 292 290 289 289 287 284 281 279 276 274 272 269 266 265 264 265 265 265 265 264 263
323 329 329 329 330 331 324 324 314 306 306 312 296 305 298 292 308 298 293 296 297 295 293 293 293 291 290 288 286 285 283 280 277 274 272 271 269 267 264 263 263 265 267 266
319 324 325 323 325 329 327 324 319 310 306 307 315 297 309 290 292 315 311 304 304 300 297 295 296 299 302 298 290 286 286 285 280 279 275 271 269 270 268 266 264 263 264 265
310 314 316 315 319 324 323 322 317 314 310 330 278 313 270 279 275 294 303 305 304 303 302 304 306 305 307 309 310 306 295 287 283 277 277 278 275 274 274 274 271 266 264 261
299 305 307 309 314 318 319 320 324 323 302 316 287 294 264 267 283 286 295 303 302 301 304 307 306 307 311 308 307 308 309 300 285 281 281 279 277 276 277 276 273 271 270 267
291 295 300 304 309 311 315 315 316 315 293 280 288 299 273 297 292 295 295 301 306 301 305 307 307 302 302 302 305 309 312 314 299 279 276 279 279 278 279 278 275 276 273 269
275 278 289 292 301 307 312 308 312 314 315 317 331 290 297 297 305 306 302 301 304 307 302 304 304 303 301 300 300 303 306 310 312 301 288 281 282 281 279 279 282 282 276 269
271 275 280 286 293 297 298 306 311 317 318 319 285 262 272 293 272 302 303 298 299 302 304 307 309 306 302 301 301 300 301 302 304 307 306 292 283 282 281 280 280 286 283 278
269 271 278 281 285 294 299 303 308 305 304 311 309 293 288 276 286 295 296 298 302 300 304 306 308 307 305 304 304 303 300 299 300 301 301 302 291 276 274 278 279 282 281 278
268 270 274 281 288 285 288 291 300 304 309 311 306 308 293 299 298 302 303 305 308 308 307 309 311 311 310 308 306 305 302 299 297 298 300 299 299 290 275 275 277 279 275 270
269 271 276 282 283 279 284 293 295 296 299 300 299 307 303 304 304 303 308 314 316 315 315 314 314 313 313 313 310 307 304 301 298 297 298 296 295 288 279 274 276 276 274 273
265 269 271 267 245 282 295 296 294 298 299 302 304 297 301 296 305 308 314 317 318 320 320 319 319 319 319 317 312 310 307 304 300 297 294 292 291 285 278 276 278 276 275 268
262 265 270 272 272 274 282 287 293 299 302 297 301 299 305 306 310 312 315 319 322 324 324 323 323 325 322 317 316 315 312 308 304 301 298 297 293 286 283 279 281 278 270 268
266 269 269 272 276 278 281 284 286 290 292 291 304 301 312 294 304 310 314 324 326 326 326 327 330 330 326 320 319 318 316 312 310 308 300 294 291 286 280 277 275 280 280 278
268 268 271 271 274 279 284 283 281 288 299 286 294 296 294 296 304 316 314 324 323 326 329 331 331 330 329 328 325 322 321 321 313 319 306 301 292 285 273 266 274 280 278 294
272 270 269 271 270 275 281 281 283 283 286 292 297 302 303 304 307 314 309 318 321 326 326 329 331 332 333 331 328 327 321 314 314 312 312 311 305 284 274 260 277 252 297 295
271 272 271 268 271 268 267 286 281 283 293 289 301 304 305 304 304 306 306 313 319 321 324 328 331 335 335 333 331 327 325 317 317 311 301 295 291 288 180 207 181 120 112 130
267 266 268 268 271 272 273 258 270 282 289 287 298 303 306 303 298 299 300 304 310 315 322 328 331 336 335 335 331 334 327 329 323 326 329 303 220 210 181 158 143 122 98 147
268 270 269 264 266 266 259 264 268 275 275 288 295 301 309 310 303 301 300 303 307 314 319 327 330 336 336 337 335 340 345 340 339 338 304 274 198 167 152 161 158 166 151 172
272 268 269 273 275 269 264 270 263 273 278 282 290 296 301 305 302 296 299 303 306 311 316 324 329 335 337 338 341 345 354 357 2 32 46 19 144 122 181 172 175 190 186 180
262 263 253 256 263 269 272 264 268 270 276 281 286 290 298 300 298 297 298 301 305 308 316 322 329 334 338 339 344 352 337 342 3 43 66 78 109 75 144 169 185 214 189 180
268 272 265 265 257 255 257 263 267 270 278 282 286 294 296 296 295 298 298 301 306 308 315 322 329 334 338 339 347 355 359 6 40 57 84 95 84 107 86 123 173 178 167 165
268 275 278 271 267 260 260 262 267 274 278 283 290 292 293 296 295 301 301 302 305 309 317 324 329 334 340 344 355 2 11 28 34 68 89 84 80 90 46 104 135 150 161 169
270 269 270 269 264 263 263 270 273 274 281 287 289 290 293 295 296 296 298 302 309 314 321 325 332 335 341 344 355 357 31 30 35 46 74 119 48 78 83 114 146 159 160 168